[[{"header":{"parameterUnit":"m.s-1","parameterCategory":1,"la1":30.2992,"la2":30.254,"lo1":-89.0895,"lo2":-89.0443,"dy":0.0025,"dx":0.0025,"nx":19,"ny":19,"refTime":"2026-04-02T21:00:00:Z","depth":0,"parameterNumber":2,"parameterNumberName":"U-component_of_WINDS"},"data":[0,0,0,-5.2029,-5.203,-5.2054,-5.2054,-5.2119,-5.212,0,0,0,0,0,0,0,0,0,0,0,-5.2042,-5.2043,-5.2029,-5.203,-5.2054,-5.2054,-5.2119,-5.212,0,0,0,0,0,0,0,0,0,0,0,-5.2042,-5.2043,-5.2045,-5.203,-5.2054,-5.2054,-5.2119,-5.2089,0,0,0,0,0,0,0,0,0,0,-5.206,-5.2091,-5.2043,-5.2045,-5.2031,-5.2054,-5.2054,-5.2087,-5.2091,-5.2123,0,-5.2157,0,-5.214,-5.2127,-5.2127,0,0,0,-5.2015,-5.2088,-5.2076,-5.2045,-5.2031,-5.2054,-5.2039,-5.2088,-5.2093,-5.2129,-5.2158,-5.2159,-5.2141,-5.2127,-5.2128,-5.2367,-5.2368,0,0,-5.2014,-5.2057,-5.2073,-5.208,-5.2078,-5.2038,-5.204,-5.2091,-5.2125,-5.2158,-5.216,-5.2142,-5.2128,-5.2129,-5.2365,-5.2367,0,0,0,-5.202,-5.2057,-5.2043,-5.2079,-5.208,-5.204,-5.2041,-5.2123,-5.2115,-5.216,-5.2143,-5.2129,-5.213,-5.2363,-5.2366,-5.2497,0,0,0,-5.2019,-5.2061,-5.2044,-5.207,-5.208,-5.2102,-5.2073,-5.2111,-5.2115,-5.2143,-5.2129,-5.2131,-5.2361,-5.2364,-5.2489,-5.2551,0,0,0,-5.2034,-5.2062,-5.2073,-5.2073,-5.2085,-5.21,-5.2094,-5.2111,-5.2106,-5.2127,-5.2131,-5.2359,-5.2364,-5.2482,-5.2539,-5.2626,0,0,0,-5.2062,-5.2189,-5.2075,-5.221,-5.2085,-5.2182,-5.2093,-5.2163,-5.2198,-5.2129,-5.2361,-5.2365,-5.248,-5.2532,-5.2619,-5.2706,-5.2747,0,0,-5.2246,-5.2212,-5.2288,-5.2188,-5.2316,-5.2175,-5.2323,-5.2312,-5.2275,-5.2339,-5.2344,-5.2492,-5.2539,-5.2625,-5.2964,-5.2997,0,0,0,-5.2361,-5.2416,-5.2441,-5.2476,-5.2473,-5.2475,-5.2438,-5.2435,-5.2487,-5.2316,-5.2547,-5.2573,-5.2622,-5.2661,-5.2689,-5.2728,-5.2386,-5.2386,-5.2385,-5.268,-5.2627,-5.275,-5.2701,-5.2737,-5.2699,-5.2723,-5.2713,-5.2647,-5.2703,-5.272,-5.2933,-5.2981,-5.3001,-5.3043,-5.2764,-5.2765,-5.2765,-5.2765,-5.2943,-5.3012,-5.2926,-5.3013,-5.2957,-5.303,-5.3002,-5.2954,-5.3014,-5.2915,-5.2955,-5.2849,-5.3039,-5.3072,-5.2775,-5.2773,-5.2772,-5.2771,-5.277,-5.3144,-5.3167,-5.3164,-5.3211,-5.3254,-5.3201,-5.3264,-5.321,-5.3161,-5.3201,-5.3213,-5.3211,-5.3201,-5.3212,-5.3212,-5.3213,-5.3214,-5.3214,-5.3215,-5.3352,-5.3344,-5.3403,-5.3414,-5.343,-5.3447,-5.3414,-5.3429,-5.3433,-5.3389,-5.3389,-5.3318,-5.3069,-5.3005,-5.3226,-5.3224,-5.3222,-5.3221,-5.3221,-5.3633,-5.3562,-5.3653,-5.3671,-5.3681,-5.3728,-5.3661,-5.3699,-5.3704,-5.3737,-5.366,-5.3484,-5.3445,-5.3423,-5.337,-5.3671,-5.3671,-5.3671,-5.3671,-5.38,-5.3777,-5.386,-5.3892,-5.3918,-5.3868,-5.3975,-5.3953,-5.3918,-5.3919,-5.3869,-5.3795,-5.3775,-5.3748,-5.3718,-5.3668,-5.4038,-5.4039,-5.4039,-5.3969,-5.3947,-5.4046,-5.4013,-5.4018,-5.4024,-5.4122,-5.4163,-5.411,-5.4053,-5.3918,-5.3902,-5.3783,-5.3748,-5.3683,-5.3639,-5.3545,0,0]},{"header":{"parameterUnit":"m.s-1","parameterCategory":1,"la1":30.2992,"la2":30.254,"lo1":-89.0895,"lo2":-89.0443,"dy":0.0025,"dx":0.0025,"nx":19,"ny":19,"refTime":"2026-04-02T21:00:00:Z","depth":0,"parameterNumber":3,"parameterNumberName":"V-component_of_WINDS"},"data":[0,0,0,1.6171,1.6171,1.6161,1.6161,1.6138,1.6138,0,0,0,0,0,0,0,0,0,0,0,1.6167,1.6167,1.6171,1.6171,1.6161,1.6161,1.6138,1.6138,0,0,0,0,0,0,0,0,0,0,0,1.6167,1.6167,1.6166,1.6171,1.6161,1.6161,1.6138,1.615,0,0,0,0,0,0,0,0,0,0,1.6161,1.615,1.6167,1.6166,1.6171,1.6161,1.6161,1.615,1.6149,1.6138,0,1.6126,0,1.6132,1.6136,1.6136,0,0,0,1.6176,1.6151,1.6155,1.6166,1.6171,1.6161,1.6167,1.615,1.6148,1.6136,1.6126,1.6126,1.6131,1.6136,1.6135,1.6058,1.6057,0,0,1.6177,1.6162,1.6156,1.6154,1.6154,1.6167,1.6167,1.6149,1.6137,1.6126,1.6125,1.6131,1.6135,1.6135,1.6058,1.6057,0,0,0,1.6175,1.6162,1.6166,1.6154,1.6153,1.6167,1.6166,1.6138,1.614,1.6125,1.6131,1.6135,1.6135,1.6059,1.6058,1.6014,0,0,0,1.6175,1.6161,1.6166,1.6157,1.6153,1.6145,1.6155,1.6142,1.614,1.6131,1.6135,1.6134,1.6059,1.6058,1.6017,1.5996,0,0,0,1.617,1.616,1.6156,1.6156,1.6151,1.6146,1.6148,1.6142,1.6143,1.6136,1.6134,1.606,1.6058,1.6019,1.6,1.5973,0,0,0,1.616,1.6116,1.6155,1.6108,1.6151,1.6119,1.6148,1.6124,1.6112,1.6135,1.6059,1.6058,1.602,1.6003,1.5975,1.5948,1.5935,0,0,1.6096,1.6108,1.6081,1.6117,1.6073,1.6122,1.6072,1.6075,1.6088,1.6067,1.6065,1.6016,1.6,1.5973,1.5865,1.5854,0,0,0,1.6056,1.6037,1.6029,1.6018,1.602,1.6021,1.6033,1.6035,1.6019,1.6074,1.5999,1.599,1.5975,1.5963,1.5954,1.5942,1.6051,1.6051,1.6052,1.5942,1.5963,1.5922,1.5942,1.5931,1.5946,1.5939,1.5944,1.5966,1.5948,1.5942,1.5874,1.5859,1.5852,1.584,1.5929,1.5928,1.5928,1.5928,1.5851,1.5828,1.5862,1.5834,1.5856,1.5833,1.5847,1.5864,1.5847,1.5879,1.5867,1.5901,1.584,1.5831,1.5925,1.5926,1.5926,1.5926,1.5926,1.578,1.5773,1.5777,1.5765,1.5754,1.5776,1.5759,1.5779,1.5798,1.5786,1.5783,1.5784,1.5789,1.5783,1.5783,1.5783,1.5782,1.5782,1.5782,1.5704,1.571,1.5693,1.5695,1.5692,1.5691,1.5708,1.5706,1.5709,1.5726,1.5726,1.5751,1.583,1.585,1.5779,1.5779,1.578,1.578,1.578,1.5605,1.5632,1.5605,1.5603,1.5608,1.5597,1.5625,1.562,1.5621,1.5612,1.5641,1.5696,1.5709,1.5716,1.5733,1.5636,1.5636,1.5636,1.5636,1.5546,1.5555,1.5535,1.553,1.5528,1.5551,1.5523,1.5537,1.5555,1.5558,1.5575,1.5599,1.5605,1.5615,1.5624,1.564,1.5522,1.5521,1.5521,1.5487,1.5498,1.5469,1.5489,1.5495,1.55,1.5475,1.547,1.5495,1.5517,1.5561,1.5566,1.5605,1.5616,1.5638,1.5652,1.5682,0,0]}]]